TimeMDT,TemperatureF,Dew PointF,Humidity,Sea Level PressureIn,VisibilityMPH,Wind Direction,Wind SpeedMPH,Gust SpeedMPH,PrecipitationIn,Events,Conditions,WindDirDegrees,DateUTC
12:53 AM,24.1,12.9,62,30.17,10.0,ESE,11.5,-,N/A,,Partly Cloudy,120,2013-03-20 06:53:00
1:53 AM,25.0,12.9,60,30.14,10.0,ESE,13.8,-,N/A,,Clear,110,2013-03-20 07:53:00
2:53 AM,23.0,12.0,63,30.11,10.0,ESE,9.2,-,N/A,,Clear,110,2013-03-20 08:53:00
3:53 AM,21.0,10.9,65,30.08,10.0,East,5.8,-,N/A,,Clear,90,2013-03-20 09:53:00
4:53 AM,19.9,12.0,71,30.04,10.0,ESE,4.6,-,N/A,,Partly Cloudy,120,2013-03-20 10:53:00
5:53 AM,21.0,12.0,68,29.99,10.0,Calm,Calm,-,N/A,,Partly Cloudy,0,2013-03-20 11:53:00
6:53 AM,21.9,12.9,68,29.99,10.0,Calm,Calm,-,N/A,,Mostly Cloudy,0,2013-03-20 12:53:00
7:53 AM,21.0,12.9,71,29.99,10.0,East,6.9,-,N/A,,Clear,80,2013-03-20 13:53:00
8:53 AM,37.0,23.0,57,29.92,10.0,SW,25.3,34.5,N/A,,Mostly Cloudy,220,2013-03-20 14:53:00
9:53 AM,37.9,24.1,57,29.88,10.0,SSW,28.8,47.2,N/A,,Scattered Clouds,200,2013-03-20 15:53:00
10:53 AM,39.0,27.0,62,29.87,10.0,SW,21.9,40.3,0.00,,Mostly Cloudy,230,2013-03-20 16:53:00
11:53 AM,42.1,28.9,60,29.83,10.0,SW,23.0,34.5,N/A,,Scattered Clouds,230,2013-03-20 17:53:00
12:53 PM,45.0,26.1,48,29.78,10.0,SSW,32.2,52.9,N/A,,Clear,210,2013-03-20 18:53:00
1:53 PM,46.9,27.0,46,29.74,10.0,SSW,29.9,43.7,N/A,,Partly Cloudy,210,2013-03-20 19:53:00
2:53 PM,52.0,26.1,37,29.70,10.0,SSW,29.9,42.6,N/A,,Clear,210,2013-03-20 20:53:00
3:53 PM,54.0,25.0,33,29.67,10.0,SW,32.2,43.7,N/A,,Clear,220,2013-03-20 21:53:00
4:53 PM,54.0,25.0,33,29.65,10.0,SW,36.8,43.7,N/A,,Clear,220,2013-03-20 22:53:00
5:53 PM,53.1,25.0,34,29.64,10.0,SSW,24.2,34.5,N/A,,Clear,210,2013-03-20 23:53:00
6:53 PM,50.0,25.0,38,29.62,10.0,SW,26.5,35.7,N/A,,Clear,220,2013-03-21 00:53:00
7:53 PM,46.9,27.0,46,29.62,10.0,SSW,25.3,41.4,N/A,,Clear,210,2013-03-21 01:53:00
8:53 PM,46.9,26.1,44,29.56,10.0,SW,28.8,36.8,N/A,,Clear,220,2013-03-21 02:53:00
9:53 PM,46.0,27.0,47,29.55,10.0,SSW,25.3,32.2,N/A,,Partly Cloudy,210,2013-03-21 03:53:00
10:53 PM,46.9,27.0,46,29.51,10.0,SSW,33.4,39.1,N/A,,Scattered Clouds,210,2013-03-21 04:53:00